Regional Weather Roundup
Issued by NWS

Home | Current Version | Previous Version | Graphics & Text | Print | Product List | Glossary On
Versions: 1 2 3 4 5 6 7 8 9 10 11 12 13 14 15 16 17 18 19 20 21 22 23 24 25 26 27 28 29 30 31 32 33 34 35 36 37 38 39 40 41 42 43 44 45 46 47 48 49 50
000
ASUS43 KMPX 090601
RWRMN
WEATHER ROUNDUP FOR MINNESOTA
NATIONAL WEATHER SERVICE TWIN CITIES/CHANHASSEN MN
1200 AM CST FRI DEC 09 2016


NOTE: "FAIR" INDICATES FEW OR NO CLOUDS BELOW 12,000 FEET WITH NO
SIGNIFICANT WEATHER AND/OR OBSTRUCTIONS TO VISIBILITY. N/A MEANS
CURRENT SKY AND/OR WEATHER CONDITIONS ARE NOT AVAILABLE.

MNZ060>063-068>070-090700-
   Twin Cities Metro

CITY           SKY/WX    TMP DP  RH WIND       PRES   REMARKS
TWIN CITIES    CLOUDY    18  10  71 NW10      30.52R WCI   6
6HR MIN TEMP:  18; 6HR MAX TEMP:  21; 6HR PCP: TRACE;

ST PAUL        CLOUDY    18  12  77 NW16      30.53R WCI   3
CRYSTAL        CLOUDY    17   9  70 NW9       30.51R WCI   6
BLAINE         CLOUDY    18  12  79 NW8       30.51R WCI   7
LAKEVILLE      FLURRIES  14  10  85 W9        30.51S WCI   2
EDEN PRAIRIE   CLEAR     15  10  80 W12       30.52R WCI   2
6HR MIN TEMP:  15; 6HR MAX TEMP:  21; 6HR PCP: TRACE;

SOUTH ST PAUL  CLOUDY    20  12  72 NW8       30.51S WCI  10
LAKE ELMO      FLURRIES  19  14  79 NW7       30.51S WCI  10
$$
MNZ001>005-007-008-013>017-022>024-027-028-090700-
   Northwest Minnesota

CITY           SKY/WX    TMP DP  RH WIND       PRES   REMARKS
BEMIDJI        FLURRIES   7   4  86 NW10      30.48R WCI  -7
HALLOCK        CLOUDY     9   3  78 N5        30.57S WCI   0
ROSEAU         CLOUDY     3  -2  78 N5        30.52F WCI  -6
WARROAD        CLOUDY     3   0  85 NW9       30.51F WCI -11
THIEF RVR FALL FLURRIES   5   1  83 N6        30.55S WCI  -6
CROOKSTON      CLOUDY     9   5  85 N6        30.58S WCI  -1
FOSSTON        CLOUDY     3   1  92 NW7       30.53S WCI  -9
DETROIT LAKES  LGT SNOW   9   5  85 NW10      30.53R WCI  -6
MOORHEAD       MIX PCPN   7   1  78 W7        30.59F WCI  -5
PARK RAPIDS    CLOUDY     9   2  73 W9        30.48R WCI  -4
$$
MNZ006-009>011-018-025>026-090700-
   North Central Minnesota

CITY           SKY/WX    TMP DP  RH WIND       PRES   REMARKS
BAUDETTE       CLOUDY     5   0  79 W10       30.48R WCI -10
FLAG ISLAND    CLOUDY     7   3  85 W15       30.48S WCI -11
INTL FALLS     CLOUDY     8   4  83 NW5       30.44S WCI   0
6HR MIN TEMP:   8; 6HR MAX TEMP:  15; 6HR PCP: TRACE;

WASKISH        FLURRIES   9   7  92 NW6       30.49S WCI  -1
BIG FORK       LGT SNOW  12   9  85 CALM      30.44S
LONGVILLE      LGT SNOW  12   9  85 W9        30.47R WCI   0
GRAND RAPIDS   FLURRIES  14   9  80 NW7       30.45F WCI   4
CRANE LAKE     LGT SNOW  12   9  85 W3        30.44S
ORR            CLOUDY    10   3  72 W6        30.40R WCI   1
COOK           CLOUDY    10   7  85 W5        30.42S WCI   2
$$
MNZ012-019>021-037-090700-
   Northeast Minnesota

CITY           SKY/WX    TMP DP  RH WIND       PRES   REMARKS
DULUTH         FLURRIES  12   6  77 NW10      30.40R WCI  -1
6HR MIN TEMP:  12; 6HR MAX TEMP:  20; 6HR PCP: TRACE;

ELY            PTCLDY     9   7  92 NW3       30.39R
HIBBING        PTCLDY     5   1  83 NW9       30.43R WCI  -9
EVELETH        MOCLDY    14   7  76 NW8       30.42S WCI   2
DULUTH HARBOR  CLEAR     18  10  73 W16       30.47S WCI   3
TWO HARBORS    CLOUDY    19  12  73 NW3       30.39S
SILVER BAY     PTCLDY    14   9  79 CALM      30.39S
GRAND MARAIS     N/A     18   8  65 CALM      30.41R
G MARAIS ARPRT CLOUDY    10   1  67 NW6       30.30R WCI   1
$$
MNZ029>031-032-039>041-046>048-054>057-064-090700-
   West Central Minnesota

CITY           SKY/WX    TMP DP  RH WIND       PRES   REMARKS
FERGUS FALLS   LGT SNOW   3   0  85 NW9       30.63R WCI -11
WHEATON        FLURRIES   3   0  85 W10       30.62S WCI -12
MORRIS         CLEAR      1  -2  85 NW9       30.57S WCI -14
ALEXANDRIA     PTCLDY     3   0  87 W10       30.52S WCI -12
ELBOW LAKE     LGT SNOW   1  -2  88 NW7       30.57S WCI -12
WADENA         FLURRIES   9   5  85 NW7       30.50S WCI  -3
GLENWOOD       CLEAR      1   0  92 W9        30.53S WCI -14
APPLETON       CLEAR      5   0  78 NW9       30.60S WCI  -9
BENSON         PTCLDY     3  -2  78 N9        30.58R WCI -11
ORTONVILLE     CLEAR      3  -2  78 NW3       30.59S
MADISON        CLEAR      7   1  78 NW9       30.60S WCI  -7
WILLMAR        CLOUDY     9   5  85 NW13      30.56S WCI  -7
$$
MNZ033>034-036-042>043-049>051-058-059-090700-
   Central Minnesota

CITY           SKY/WX    TMP DP  RH WIND       PRES   REMARKS
ST CLOUD       CLEAR     10   7  87 NW6       30.52R WCI   0
6HR MIN TEMP:   9; 6HR MAX TEMP:  18;

PAYNESVILLE    FLURRIES  11   8  87 NW10      30.53S WCI  -3
AITKIN         CLOUDY    16   9  73 CALM      30.45S
PINE RIVER     LGT SNOW  12   9  85 W3        30.50S
BRAINERD       CLOUDY    13  10  88 W5        30.49S WCI   5
STAPLES        CLOUDY     9   7  92 NW12      30.50S WCI  -6
LONG PRAIRIE   FLURRIES  10   7  85 SW7       30.51S WCI   0
LITTLE FALLS   CLOUDY    12   9  85 NW3       30.51S
LITCHFIELD     MOCLDY    12   9  85 NW12      30.53S WCI  -2
BUFFALO        CLEAR     13  10  84 W7        30.53S WCI   3
MAPLE LAKE     CLEAR     13  11  90 W6        30.53S WCI   4
HUTCHINSON     MOCLDY    12   9  85 W10       30.54S WCI  -1
$$
MNZ037-044-045-052-053-090700-
   East Central Minnesota

CITY           SKY/WX    TMP DP  RH WIND       PRES   REMARKS
PRINCETON      MOCLDY    12   9  85 W6        30.50S WCI   3
MORA           CLEAR     14   9  79 NW3       30.50R
CAMBRIDGE      FLURRIES  16   9  73 W6        30.49S WCI   7
RUSH CITY      CLEAR     16  10  79 NW5       30.49S WCI   9
MOOSE LAKE     CLOUDY    18   9  68 N3        30.45S
HINCKLEY       FAIR      16  10  79 NW8       30.48R WCI   5
CLOQUET        CLEAR     12   5  73 NW10      30.43R WCI  -1
MCGREGOR       CLOUDY    16  12  86 CALM      30.46S
$$
MNZ071>073-080-081-089-090-097-098-090700-
   Southwest Minnesota

CITY           SKY/WX    TMP DP  RH WIND       PRES   REMARKS
MONTEVIDEO     CLEAR      3   0  85 N10       30.61S WCI -12
GRANITE FALLS  CLEAR      7   3  82 NW12      30.61S WCI  -8
CANBY          CLEAR      5   1  83 CALM      30.61R
MARSHALL       CLEAR      5   1  83 NW10      30.59S WCI -10
REDWOOD FALLS  PTCLDY     8   2  76 NW13      30.58S WCI  -8
OLIVIA         CLEAR     10   5  79 NW10      30.56S WCI  -3
PIPESTONE      CLEAR      5   1  85 W3        30.54S
WINDOM         FLURRIES   9   5  85 NW10      30.55S WCI  -6
WORTHINGTON    CLEAR      6   2  83 NW9       30.55S WCI  -8
JACKSON        PTCLDY     9   5  85 NW10      30.55S WCI  -6
TRACY          CLEAR      8   4  85 NW10      30.57S WCI  -7
SLAYTON        CLEAR      6   3  87 NW7       30.55S WCI  -6
$$
MNZ065>067-074>077-082>085-091>093-090700-
   South Central Minnesota

CITY           SKY/WX    TMP DP  RH WIND       PRES   REMARKS
NEW ULM        FLURRIES  10   7  85 NW15      30.56S WCI  -6
ST JAMES       CLOUDY    12   7  79 W15       30.57S WCI  -4
FAIRMONT       FLURRIES  12   7  80 NW15      30.56S WCI  -4
GLENCOE        CLEAR     13  11  91 W7        30.54R WCI   3
FARIBAULT      CLOUDY    16  10  79 W10       30.52R WCI   3
OWATONNA       LGT SNOW  14   9  79 W10G17    30.51R WCI   1
WASECA         FLURRIES  14  10  85 W15       30.53S WCI  -1
ALBERT LEA     FLURRIES  18  14  86 NW7       30.50F WCI   8
$$
MNZ078>079-086>088-094>096-090700-
   Southeast Minnesota

CITY           SKY/WX    TMP DP  RH WIND       PRES   REMARKS
ROCHESTER      FLURRIES  15  12  88 NW13      30.47R WCI   1
6HR MIN TEMP:  15; 6HR MAX TEMP:  19; 6HR PCP: TRACE;

RED WING       CLOUDY    21  12  68 NW3       30.49S
STANTON        FLURRIES  18  13  80 W10       30.50S WCI   6
DODGE CENTER   MOCLDY    14  10  85 W12       30.48S WCI   0
WINONA         FLURRIES  23  16  74 W9        30.50R WCI  13
AUSTIN         FLURRIES  14  10  85 NW10      30.49S WCI   1
PRESTON        FLURRIES  15  12  85 NW12      30.47S WCI   2
$$
ABBREVIATIONS USED IN REMARKS
   TC - TEMPERATURES IN CELSIUS
  WCI - WIND CHILL INDEX
   HX - HEAT INDEX
  VSB - VISIBILITY
$$




USA.gov is the U.S. government's official web portal to all federal, state and local government web resources and services.